Year,Month,Day,Hour,Minute,Value (Times are PST for temperature in C)
2008,06,29,00,00,21.00
2008,06,29,00,01,20.90
2008,06,29,00,02,20.90
2008,06,29,00,03,20.90
2008,06,29,00,04,20.80
2008,06,29,00,05,20.80
2008,06,29,00,06,20.80
2008,06,29,00,07,20.70
2008,06,29,00,08,20.70
2008,06,29,00,09,20.70
2008,06,29,00,10,20.60
2008,06,29,00,11,20.60
2008,06,29,00,12,20.60
2008,06,29,01,02,21.50
2008,06,29,01,03,21.60
2008,06,29,01,04,21.60
2008,06,29,01,05,21.60
2008,06,29,01,06,21.70
2008,06,29,01,07,21.70
2008,06,29,01,08,21.80
2008,06,29,01,09,21.80
2008,06,29,01,10,21.80
2008,06,29,01,11,21.80
2008,06,29,01,12,21.80
2008,06,29,01,13,21.90
2008,06,29,01,14,21.90
2008,06,29,01,15,21.90
2008,06,29,01,16,21.90
2008,06,29,01,17,21.90
2008,06,29,01,18,21.90
2008,06,29,01,19,21.80
2008,06,29,01,20,21.90
2008,06,29,01,21,21.90
2008,06,29,01,22,21.90
2008,06,29,01,23,21.90
2008,06,29,01,24,21.90
2008,06,29,01,25,21.90
2008,06,29,01,26,21.90
2008,06,29,01,27,21.90
2008,06,29,01,28,21.80
2008,06,29,01,29,21.80
2008,06,29,01,30,21.80
2008,06,29,01,31,21.70
2008,06,29,01,32,21.70
2008,06,29,01,33,21.60
2008,06,29,01,34,21.60
2008,06,29,01,35,21.40
2008,06,29,01,36,21.30
2008,06,29,01,37,21.10
2008,06,29,01,38,20.90
2008,06,29,01,39,20.70
2008,06,29,01,40,20.50
2008,06,29,01,41,20.30
2008,06,29,01,42,20.20
2008,06,29,01,43,20.00
2008,06,29,01,44,19.90
2008,06,29,01,45,19.70
2008,06,29,01,46,19.60
2008,06,29,01,47,19.40
2008,06,29,01,48,19.30
2008,06,29,01,49,19.10
2008,06,29,01,50,19.10
2008,06,29,01,51,18.90
2008,06,29,01,52,18.90
2008,06,29,01,53,18.70
2008,06,29,01,54,18.60
2008,06,29,01,55,18.60
2008,06,29,01,56,18.50
2008,06,29,01,57,18.40
2008,06,29,01,58,18.30
2008,06,29,01,59,18.20
2008,06,29,02,00,18.20
2008,06,29,02,01,18.20
2008,06,29,02,02,18.10
2008,06,29,02,03,18.00
2008,06,29,02,04,17.90
2008,06,29,02,05,17.90
2008,06,29,02,06,17.90
2008,06,29,02,07,17.80
2008,06,29,02,08,17.80
2008,06,29,02,09,17.70
2008,06,29,02,10,17.70
2008,06,29,02,11,17.60
2008,06,29,02,12,17.60
2008,06,29,02,13,17.60
2008,06,29,02,14,17.50
2008,06,29,02,15,17.50
2008,06,29,02,16,17.50
2008,06,29,02,17,17.40
2008,06,29,02,18,17.40
2008,06,29,02,19,17.40
2008,06,29,02,20,17.40
2008,06,29,02,21,17.30
2008,06,29,02,22,17.30
2008,06,29,02,23,17.30
2008,06,29,02,24,17.30
2008,06,29,02,25,17.30
2008,06,29,02,26,17.30
2008,06,29,02,27,17.30
2008,06,29,02,28,17.30
2008,06,29,02,29,17.30
2008,06,29,02,30,17.30
2008,06,29,02,31,17.30
2008,06,29,02,32,17.30
2008,06,29,02,33,17.30
2008,06,29,02,34,17.30
2008,06,29,02,35,17.30
2008,06,29,02,36,17.30
2008,06,29,02,37,17.30
2008,06,29,02,38,17.30
2008,06,29,02,39,17.30
2008,06,29,02,40,17.30
2008,06,29,02,41,17.30
2008,06,29,02,42,17.30
2008,06,29,02,43,17.30
2008,06,29,02,44,17.30
2008,06,29,02,45,17.30
2008,06,29,02,46,17.30
2008,06,29,02,47,17.30
2008,06,29,02,48,17.30
2008,06,29,02,49,17.30
2008,06,29,02,50,17.30
2008,06,29,02,51,17.30
2008,06,29,02,52,17.30
2008,06,29,02,53,17.30
2008,06,29,02,54,17.20
2008,06,29,02,55,17.20
2008,06,29,02,56,17.10
2008,06,29,02,57,17.10
2008,06,29,02,58,17.10
2008,06,29,02,59,17.00
2008,06,29,03,00,17.00
2008,06,29,03,01,17.10
2008,06,29,03,02,17.20
2008,06,29,03,03,17.20
2008,06,29,03,04,17.30
2008,06,29,03,05,17.30
2008,06,29,03,06,17.30
2008,06,29,03,07,17.30
2008,06,29,03,08,17.30
2008,06,29,03,09,17.30
2008,06,29,03,10,17.30
2008,06,29,03,11,17.30
2008,06,29,03,12,17.30
2008,06,29,03,13,17.30
2008,06,29,03,14,17.20
2008,06,29,03,15,17.20
2008,06,29,03,16,17.20
2008,06,29,03,17,17.10
2008,06,29,03,18,17.10
2008,06,29,03,19,17.10
2008,06,29,03,20,17.00
2008,06,29,03,21,17.00
2008,06,29,03,22,17.00
2008,06,29,03,23,16.90
2008,06,29,03,24,16.90
2008,06,29,03,25,16.90
2008,06,29,03,26,16.80
2008,06,29,03,27,16.80
2008,06,29,03,28,16.80
2008,06,29,03,29,16.70
2008,06,29,03,30,16.70
2008,06,29,03,31,16.70
2008,06,29,03,32,16.70
2008,06,29,03,33,16.60
2008,06,29,03,34,16.60
2008,06,29,03,35,16.60
2008,06,29,03,36,16.50
2008,06,29,03,37,16.40
2008,06,29,03,38,16.40
2008,06,29,03,39,16.40
2008,06,29,03,40,16.40
2008,06,29,03,41,16.40
2008,06,29,03,42,16.30
2008,06,29,03,43,16.30
2008,06,29,03,44,16.30
2008,06,29,03,45,16.30
2008,06,29,03,46,16.20
2008,06,29,03,47,16.20
2008,06,29,03,48,16.20
2008,06,29,03,49,16.20
2008,06,29,03,50,16.20
2008,06,29,03,51,16.20
2008,06,29,03,52,16.20
2008,06,29,03,53,16.20
2008,06,29,03,54,16.20
2008,06,29,03,55,16.10
2008,06,29,03,56,16.10
2008,06,29,03,57,16.10
2008,06,29,03,58,16.10
2008,06,29,03,59,16.10
2008,06,29,04,00,16.10
2008,06,29,04,01,16.10
2008,06,29,04,02,16.10
2008,06,29,04,03,16.10
2008,06,29,04,04,16.10
2008,06,29,04,05,16.10
2008,06,29,04,06,16.10
2008,06,29,04,07,16.10
2008,06,29,04,08,16.10
2008,06,29,04,09,16.10
2008,06,29,04,10,16.10
2008,06,29,04,11,16.00
2008,06,29,04,12,16.10
2008,06,29,04,13,16.20
2008,06,29,04,14,16.30
2008,06,29,04,15,16.40
2008,06,29,04,16,16.40
2008,06,29,04,17,16.40
2008,06,29,04,18,16.40
2008,06,29,04,19,16.40
2008,06,29,04,20,16.40
2008,06,29,04,21,16.40
2008,06,29,04,22,16.40
2008,06,29,04,23,16.40
2008,06,29,04,24,16.30
2008,06,29,04,25,16.30
2008,06,29,04,26,16.30
2008,06,29,04,27,16.20
2008,06,29,04,28,16.20
2008,06,29,04,29,16.20
2008,06,29,04,30,16.10
2008,06,29,04,31,16.10
2008,06,29,04,32,16.10
2008,06,29,04,33,16.10
2008,06,29,04,34,16.10
2008,06,29,04,35,16.10
2008,06,29,04,36,16.10
2008,06,29,04,37,16.00
2008,06,29,04,38,15.90
2008,06,29,04,39,15.90
2008,06,29,04,40,15.90
2008,06,29,04,41,15.90
2008,06,29,04,42,15.90
2008,06,29,04,43,15.80
2008,06,29,04,44,15.80
2008,06,29,04,45,15.80
2008,06,29,04,46,15.80
2008,06,29,04,47,15.80
2008,06,29,04,48,15.80
2008,06,29,04,49,15.80
2008,06,29,04,50,15.80
2008,06,29,04,51,15.80
2008,06,29,04,52,15.80
2008,06,29,04,53,15.80
2008,06,29,04,54,15.80
2008,06,29,04,55,15.70
2008,06,29,04,56,15.70
2008,06,29,04,57,15.70
2008,06,29,04,58,15.70
2008,06,29,04,59,15.70
2008,06,29,05,00,15.60
2008,06,29,05,01,15.60
2008,06,29,05,02,15.60
2008,06,29,05,03,15.60
2008,06,29,05,04,15.60
2008,06,29,05,05,15.50
2008,06,29,05,06,15.50
2008,06,29,05,07,15.50
2008,06,29,05,08,15.50
2008,06,29,05,09,15.40
2008,06,29,05,10,15.40
2008,06,29,05,11,15.40
2008,06,29,05,12,15.30
2008,06,29,05,13,15.30
2008,06,29,05,14,15.30
2008,06,29,05,15,15.30
2008,06,29,05,16,15.30
2008,06,29,05,17,15.30
2008,06,29,05,18,15.20
2008,06,29,05,19,15.20
2008,06,29,05,20,15.10
2008,06,29,05,21,15.10
2008,06,29,05,22,15.10
2008,06,29,05,23,15.10
2008,06,29,05,24,15.00
2008,06,29,05,25,15.00
2008,06,29,05,26,15.00
2008,06,29,05,27,15.00
2008,06,29,05,28,15.00
2008,06,29,05,29,14.90
2008,06,29,05,30,15.00
2008,06,29,05,31,15.00
2008,06,29,05,32,15.00
2008,06,29,05,33,15.00
2008,06,29,05,34,15.00
2008,06,29,05,35,15.00
2008,06,29,05,36,15.00
2008,06,29,05,37,15.00
2008,06,29,05,38,15.00
2008,06,29,05,39,15.00
2008,06,29,05,40,15.00
2008,06,29,05,41,15.00
2008,06,29,05,42,15.00
2008,06,29,05,43,15.00
2008,06,29,05,44,15.00
2008,06,29,05,45,15.00
2008,06,29,05,46,15.00
2008,06,29,05,47,15.00
2008,06,29,05,48,15.00
2008,06,29,05,49,15.00
2008,06,29,05,50,15.00
2008,06,29,05,51,15.00
2008,06,29,05,52,15.00
2008,06,29,05,53,15.00
2008,06,29,05,54,15.00
2008,06,29,05,55,15.00
2008,06,29,05,56,15.00
2008,06,29,05,57,15.00
2008,06,29,05,58,15.00
2008,06,29,05,59,15.00
2008,06,29,06,00,15.00
2008,06,29,06,01,14.90
2008,06,29,06,02,14.90
2008,06,29,06,03,14.90
2008,06,29,06,04,14.90
2008,06,29,06,05,14.90
2008,06,29,06,06,14.90
2008,06,29,06,07,14.90
2008,06,29,06,08,15.00
2008,06,29,06,09,15.00
2008,06,29,06,10,15.00
2008,06,29,06,11,15.00
2008,06,29,06,12,15.00
2008,06,29,06,13,15.00
2008,06,29,06,14,15.00
2008,06,29,06,15,15.10
2008,06,29,06,16,15.10
2008,06,29,06,17,15.10
2008,06,29,06,18,15.10
2008,06,29,06,19,15.10
2008,06,29,06,20,15.20
2008,06,29,06,21,15.20
2008,06,29,06,22,15.20
2008,06,29,06,23,15.20
2008,06,29,06,24,15.20
2008,06,29,06,25,15.20
2008,06,29,06,26,15.30
2008,06,29,06,27,15.30
2008,06,29,06,28,15.30
2008,06,29,06,29,15.30
2008,06,29,06,30,15.30
2008,06,29,06,31,15.30
2008,06,29,06,32,15.40
2008,06,29,06,33,15.40
2008,06,29,06,34,15.50
2008,06,29,06,35,15.50
2008,06,29,06,36,15.50
2008,06,29,06,37,15.60
2008,06,29,06,38,15.60
2008,06,29,06,39,15.70
2008,06,29,06,40,15.70
2008,06,29,06,41,15.80
2008,06,29,06,42,15.80
2008,06,29,06,43,15.90
2008,06,29,06,44,15.90
2008,06,29,06,45,16.00
2008,06,29,06,46,16.10
2008,06,29,06,47,16.10
2008,06,29,06,48,16.20
2008,06,29,06,49,16.20
2008,06,29,06,50,16.30
2008,06,29,06,51,16.40
2008,06,29,06,52,16.40
2008,06,29,06,53,16.60
2008,06,29,06,54,16.70
2008,06,29,06,55,16.70
2008,06,29,06,56,16.70
2008,06,29,06,57,16.80
2008,06,29,06,58,16.90
2008,06,29,06,59,16.90
2008,06,29,07,00,17.00
2008,06,29,07,01,17.10
2008,06,29,07,02,17.10
2008,06,29,07,03,17.20
2008,06,29,07,04,17.30
2008,06,29,07,05,17.50
2008,06,29,07,06,17.70
2008,06,29,07,07,17.80
2008,06,29,07,08,18.00
2008,06,29,07,09,18.20
2008,06,29,07,10,18.30
2008,06,29,07,11,18.40
2008,06,29,07,12,18.50
2008,06,29,07,13,18.60
2008,06,29,07,14,18.70
2008,06,29,07,15,18.90
2008,06,29,07,16,18.90
2008,06,29,07,17,19.00
2008,06,29,07,18,19.10
2008,06,29,07,19,19.10
2008,06,29,07,20,19.10
2008,06,29,07,21,19.20
2008,06,29,07,22,19.30
2008,06,29,07,23,19.40
2008,06,29,07,24,19.40
2008,06,29,07,25,19.50
2008,06,29,07,26,19.60
2008,06,29,07,27,19.60
2008,06,29,07,28,19.70
2008,06,29,07,29,19.70
2008,06,29,07,30,19.70
2008,06,29,07,31,19.80
2008,06,29,07,32,19.80
2008,06,29,07,33,19.80
2008,06,29,07,34,19.90
2008,06,29,07,35,19.90
2008,06,29,07,36,19.90
2008,06,29,07,37,19.90
2008,06,29,07,38,19.90
2008,06,29,07,39,19.90
2008,06,29,07,40,19.90
2008,06,29,07,41,19.90
2008,06,29,07,42,19.90
2008,06,29,07,43,20.00
2008,06,29,07,44,20.10
2008,06,29,07,45,20.10
2008,06,29,07,46,20.10
2008,06,29,07,47,20.20
2008,06,29,07,48,20.20
2008,06,29,07,49,20.20
2008,06,29,07,50,20.20
2008,06,29,07,51,20.20
2008,06,29,07,52,20.20
2008,06,29,07,53,20.20
2008,06,29,07,54,20.20
2008,06,29,07,55,20.20
2008,06,29,07,56,20.20
2008,06,29,07,57,20.20
2008,06,29,07,58,20.20
2008,06,29,07,59,20.20
2008,06,29,08,00,20.20
2008,06,29,08,01,20.20
2008,06,29,08,02,20.20
2008,06,29,08,03,20.20
2008,06,29,08,04,20.20
2008,06,29,08,05,20.20
2008,06,29,08,06,20.20
2008,06,29,08,07,20.20
2008,06,29,08,08,20.20
2008,06,29,08,09,20.20
2008,06,29,08,10,20.20
2008,06,29,08,11,20.20
2008,06,29,08,12,20.20
2008,06,29,08,13,20.20
2008,06,29,08,14,20.20
2008,06,29,08,15,20.20
2008,06,29,08,16,20.20
2008,06,29,08,17,20.20
2008,06,29,08,18,20.20
2008,06,29,08,19,20.20
2008,06,29,08,20,20.20
2008,06,29,08,21,20.20
2008,06,29,08,22,20.20
2008,06,29,08,23,20.20
2008,06,29,08,24,20.30
2008,06,29,08,25,20.30
2008,06,29,08,26,20.30
2008,06,29,08,27,20.30
2008,06,29,08,28,20.30
2008,06,29,08,29,20.30
2008,06,29,08,30,20.20
2008,06,29,08,31,20.20
2008,06,29,08,32,20.20
2008,06,29,08,33,20.20
2008,06,29,08,34,20.20
2008,06,29,08,35,20.20
2008,06,29,08,36,20.20
2008,06,29,08,37,20.20
2008,06,29,08,38,20.30
2008,06,29,08,39,20.30
2008,06,29,08,40,20.30
2008,06,29,08,41,20.40
2008,06,29,08,42,20.40
2008,06,29,08,43,20.40
2008,06,29,08,44,20.40
2008,06,29,08,45,20.40
2008,06,29,08,46,20.40
2008,06,29,08,47,20.40
2008,06,29,08,48,20.40
2008,06,29,08,49,20.50
2008,06,29,08,50,20.50
2008,06,29,08,51,20.60
2008,06,29,08,52,20.60
2008,06,29,08,53,20.60
2008,06,29,08,54,20.60
2008,06,29,08,55,20.60
2008,06,29,08,56,20.60
2008,06,29,08,57,20.60
2008,06,29,08,58,20.60
2008,06,29,08,59,20.70
2008,06,29,09,00,20.70
2008,06,29,09,01,20.70
2008,06,29,09,02,20.80
2008,06,29,09,03,20.80
2008,06,29,09,04,20.80
2008,06,29,09,05,20.80
2008,06,29,09,06,20.80
2008,06,29,09,07,20.80
2008,06,29,09,08,20.80
2008,06,29,09,09,20.80
2008,06,29,09,10,20.80
2008,06,29,09,11,20.80
2008,06,29,09,12,20.80
2008,06,29,09,13,20.70
2008,06,29,09,14,20.70
2008,06,29,09,15,20.70
2008,06,29,09,16,20.70
2008,06,29,09,17,20.70
2008,06,29,09,18,20.70
2008,06,29,09,19,20.70
2008,06,29,09,20,20.70
2008,06,29,09,21,20.70
2008,06,29,09,22,20.70
2008,06,29,09,23,20.70
2008,06,29,09,24,20.70
2008,06,29,09,25,20.70
2008,06,29,09,26,20.70
2008,06,29,09,27,20.70
2008,06,29,09,28,20.70
2008,06,29,09,29,20.80
2008,06,29,09,30,20.80
2008,06,29,09,31,20.80
2008,06,29,09,32,20.90
2008,06,29,09,33,20.90
2008,06,29,09,34,21.00
2008,06,29,09,35,21.00
2008,06,29,09,36,21.00
2008,06,29,09,37,21.10
2008,06,29,09,38,21.10
2008,06,29,09,39,21.20
2008,06,29,09,40,21.20
2008,06,29,09,41,21.30
2008,06,29,09,42,21.30
2008,06,29,09,43,21.30
2008,06,29,09,44,21.30
2008,06,29,09,45,21.30
2008,06,29,09,46,21.30
2008,06,29,09,47,21.30
2008,06,29,09,48,21.40
2008,06,29,09,49,21.40
2008,06,29,09,50,21.40
2008,06,29,09,51,21.50
2008,06,29,09,52,21.60
2008,06,29,09,53,21.60
2008,06,29,09,54,21.60
2008,06,29,09,55,21.70
2008,06,29,09,56,21.70
2008,06,29,09,57,21.70
2008,06,29,09,58,21.70
2008,06,29,09,59,21.80
2008,06,29,10,00,21.80
2008,06,29,10,01,21.80
2008,06,29,10,02,21.80
2008,06,29,10,03,21.80
2008,06,29,10,04,21.80
2008,06,29,10,05,21.80
2008,06,29,10,06,21.80
2008,06,29,10,07,21.80
2008,06,29,10,08,21.80
2008,06,29,10,09,21.80
2008,06,29,10,10,21.80
2008,06,29,10,11,21.80
2008,06,29,10,12,21.80
2008,06,29,10,13,21.80
2008,06,29,10,14,21.70
2008,06,29,10,15,21.70
2008,06,29,10,16,21.70
2008,06,29,10,17,21.70
2008,06,29,10,18,21.70
2008,06,29,10,19,21.70
2008,06,29,10,20,21.60
2008,06,29,10,21,21.60
2008,06,29,10,22,21.60
2008,06,29,10,23,21.40
2008,06,29,10,24,21.30
2008,06,29,10,25,21.30
2008,06,29,10,26,21.30
2008,06,29,10,27,21.30
2008,06,29,10,28,21.30
2008,06,29,10,29,21.30
2008,06,29,10,30,21.30
2008,06,29,10,31,21.30
2008,06,29,10,32,21.40
2008,06,29,10,33,21.50
2008,06,29,10,34,21.60
2008,06,29,10,35,21.70
2008,06,29,10,36,21.70
2008,06,29,10,37,21.70
2008,06,29,10,38,21.60
2008,06,29,10,39,21.60
2008,06,29,10,40,21.60
2008,06,29,10,41,21.60
2008,06,29,10,42,21.60
2008,06,29,10,43,21.60
2008,06,29,10,44,21.60
2008,06,29,10,45,21.60
2008,06,29,10,46,21.60
2008,06,29,10,47,21.60
2008,06,29,10,48,21.60
2008,06,29,10,49,21.60
2008,06,29,10,50,21.70
2008,06,29,10,51,21.70
2008,06,29,10,52,21.80
2008,06,29,10,53,21.80
2008,06,29,10,54,21.80
2008,06,29,10,55,21.80
2008,06,29,10,56,21.70
2008,06,29,10,57,21.70
2008,06,29,10,58,21.70
2008,06,29,10,59,21.60
2008,06,29,11,00,21.60
2008,06,29,11,01,21.50
2008,06,29,11,02,21.40
2008,06,29,11,03,21.40
2008,06,29,11,04,21.40
2008,06,29,11,05,21.40
2008,06,29,11,06,21.40
2008,06,29,11,07,21.40
2008,06,29,11,08,21.50
2008,06,29,11,09,21.60
2008,06,29,11,10,21.60
2008,06,29,11,11,21.70
2008,06,29,11,12,21.70
2008,06,29,11,13,21.80
2008,06,29,11,14,22.00
2008,06,29,11,15,22.00
2008,06,29,11,16,22.10
2008,06,29,11,17,22.20
2008,06,29,11,18,22.20
2008,06,29,11,19,22.20
2008,06,29,11,20,22.30
2008,06,29,11,21,22.30
2008,06,29,11,22,22.30
2008,06,29,11,23,22.30
2008,06,29,11,24,22.30
2008,06,29,11,25,22.30
2008,06,29,11,26,22.20
2008,06,29,11,27,22.00
2008,06,29,11,28,21.90
2008,06,29,11,29,21.70
2008,06,29,11,30,21.60
2008,06,29,11,31,21.60
2008,06,29,11,32,21.60
2008,06,29,11,33,21.60
2008,06,29,11,34,21.70
2008,06,29,11,35,21.80
2008,06,29,11,36,21.80
2008,06,29,11,37,21.80
2008,06,29,11,38,21.90
2008,06,29,11,39,22.00
2008,06,29,11,40,22.10
2008,06,29,11,41,22.20
2008,06,29,11,42,22.30
2008,06,29,11,43,22.40
2008,06,29,11,44,22.50
2008,06,29,11,45,22.60
2008,06,29,11,46,22.60
2008,06,29,11,47,22.70
2008,06,29,11,48,22.50
2008,06,29,11,49,22.40
2008,06,29,11,50,22.40
2008,06,29,11,51,22.40
2008,06,29,11,52,22.40
2008,06,29,11,53,22.40
2008,06,29,11,54,22.50
2008,06,29,11,55,22.50
2008,06,29,11,56,22.50
2008,06,29,11,57,22.50
2008,06,29,11,58,22.50
2008,06,29,11,59,22.50
2008,06,29,12,00,22.40
2008,06,29,12,01,22.40
2008,06,29,12,02,22.40
2008,06,29,12,03,22.50
2008,06,29,12,04,22.50
2008,06,29,12,05,22.60
2008,06,29,12,06,22.80
2008,06,29,12,07,22.90
2008,06,29,12,08,23.00
2008,06,29,12,09,23.10
2008,06,29,12,10,23.10
2008,06,29,12,11,23.10
2008,06,29,12,12,23.10
2008,06,29,12,13,23.10
2008,06,29,12,14,23.10
2008,06,29,12,15,23.10
2008,06,29,12,16,23.00
2008,06,29,12,17,22.90
2008,06,29,12,18,23.10
2008,06,29,12,19,23.10
2008,06,29,12,20,23.10
2008,06,29,12,21,23.20
2008,06,29,12,22,23.20
2008,06,29,12,23,23.20
2008,06,29,12,24,23.20
2008,06,29,12,25,23.10
2008,06,29,12,26,23.20
2008,06,29,12,27,23.20
2008,06,29,12,28,23.20
2008,06,29,12,29,23.30
2008,06,29,12,30,23.40
2008,06,29,12,31,23.50
2008,06,29,12,32,23.70
2008,06,29,12,33,23.80
2008,06,29,12,34,23.80
2008,06,29,12,35,23.90
2008,06,29,12,36,23.90
2008,06,29,12,37,23.90
2008,06,29,12,38,24.00
2008,06,29,12,39,23.90
2008,06,29,12,40,23.90
2008,06,29,12,41,23.80
2008,06,29,12,42,23.90
2008,06,29,12,43,24.00
2008,06,29,12,44,24.10
2008,06,29,12,45,24.10
2008,06,29,12,46,24.10
2008,06,29,12,47,24.10
2008,06,29,12,48,24.10
2008,06,29,12,49,24.10
2008,06,29,12,50,24.10
2008,06,29,12,51,24.10
2008,06,29,12,52,24.10
2008,06,29,12,53,24.10
2008,06,29,12,54,24.10
2008,06,29,12,55,24.20
2008,06,29,12,56,24.20
2008,06,29,12,57,24.20
2008,06,29,12,58,24.30
2008,06,29,12,59,24.20
2008,06,29,13,00,24.20
2008,06,29,13,01,24.10
2008,06,29,13,02,24.10
2008,06,29,13,03,24.10
2008,06,29,13,04,24.10
2008,06,29,13,05,24.10
2008,06,29,13,06,24.10
2008,06,29,13,07,24.10
2008,06,29,13,08,24.10
2008,06,29,13,09,24.20
2008,06,29,13,10,24.30
2008,06,29,13,11,24.50
2008,06,29,13,12,24.50
2008,06,29,13,13,24.60
2008,06,29,13,14,24.60
2008,06,29,13,15,24.50
2008,06,29,13,16,24.40
2008,06,29,13,17,24.30
2008,06,29,13,18,24.30
2008,06,29,13,19,24.30
2008,06,29,13,20,24.40
2008,06,29,13,21,24.40
2008,06,29,13,22,24.50
2008,06,29,13,23,24.60
2008,06,29,13,24,24.70
2008,06,29,13,25,24.80
2008,06,29,13,26,24.90
2008,06,29,13,27,25.00
2008,06,29,13,28,25.00
2008,06,29,13,29,25.00
2008,06,29,13,30,25.00
2008,06,29,13,31,25.00
2008,06,29,13,32,25.00
2008,06,29,13,33,24.90
2008,06,29,13,34,24.90
2008,06,29,13,35,24.90
2008,06,29,13,36,25.00
2008,06,29,13,37,25.10
2008,06,29,13,38,25.20
2008,06,29,13,39,25.30
2008,06,29,13,40,25.40
2008,06,29,13,41,25.40
2008,06,29,13,42,25.50
2008,06,29,13,43,25.60
2008,06,29,13,44,25.60
2008,06,29,13,45,25.50
2008,06,29,13,46,25.50
2008,06,29,13,47,25.60
2008,06,29,13,48,25.70
2008,06,29,13,49,25.70
2008,06,29,13,50,25.70
2008,06,29,13,51,25.80
2008,06,29,13,52,25.90
2008,06,29,13,53,25.90
2008,06,29,13,54,25.90
2008,06,29,13,55,25.90
2008,06,29,13,56,26.00
2008,06,29,13,57,26.00
2008,06,29,13,58,26.20
2008,06,29,13,59,26.30
2008,06,29,14,00,26.30
2008,06,29,14,01,26.30
2008,06,29,14,02,26.30
2008,06,29,14,03,26.30
2008,06,29,14,04,26.30
2008,06,29,14,05,26.30
2008,06,29,14,06,26.20
2008,06,29,14,07,26.10
2008,06,29,14,08,26.00
2008,06,29,14,09,26.00
2008,06,29,14,10,26.00
2008,06,29,14,11,25.90
2008,06,29,14,12,25.80
2008,06,29,14,13,25.80
2008,06,29,14,14,25.90
2008,06,29,14,15,25.90
2008,06,29,14,16,26.00
2008,06,29,14,17,26.10
2008,06,29,14,18,26.20
2008,06,29,14,19,26.30
2008,06,29,14,20,26.50
2008,06,29,14,21,26.60
2008,06,29,14,22,26.60
2008,06,29,14,23,26.60
2008,06,29,14,24,26.60
2008,06,29,14,25,26.60
2008,06,29,14,26,26.70
2008,06,29,14,27,26.70
2008,06,29,14,28,26.80
2008,06,29,14,29,26.80
2008,06,29,14,30,26.80
2008,06,29,14,31,26.80
2008,06,29,14,32,26.70
2008,06,29,14,33,26.70
2008,06,29,14,34,26.60
2008,06,29,14,35,26.60
2008,06,29,14,36,26.60
2008,06,29,14,37,26.60
2008,06,29,14,38,26.60
2008,06,29,14,39,26.60
2008,06,29,14,40,26.70
2008,06,29,14,41,26.70
2008,06,29,14,42,26.60
2008,06,29,14,43,26.60
2008,06,29,14,44,26.60
2008,06,29,14,45,26.60
2008,06,29,14,46,26.80
2008,06,29,14,47,26.80
2008,06,29,14,48,26.80
2008,06,29,14,49,26.80
2008,06,29,14,50,26.70
2008,06,29,14,51,26.60
2008,06,29,14,52,26.60
2008,06,29,14,53,26.50
2008,06,29,14,54,26.40
2008,06,29,14,55,26.30
2008,06,29,14,56,26.30
2008,06,29,14,57,26.20
2008,06,29,14,58,26.20
2008,06,29,14,59,26.20
2008,06,29,15,00,26.20
2008,06,29,15,01,26.20
2008,06,29,15,02,26.10
2008,06,29,15,03,26.20
2008,06,29,15,04,26.20
2008,06,29,15,05,26.20
2008,06,29,15,06,26.20
2008,06,29,15,07,26.20
2008,06,29,15,08,26.20
2008,06,29,15,09,26.30
2008,06,29,15,10,26.30
2008,06,29,15,11,26.40
2008,06,29,15,12,26.40
2008,06,29,15,13,26.40
2008,06,29,15,14,26.30
2008,06,29,15,15,26.20
2008,06,29,15,16,26.10
2008,06,29,15,17,26.20
2008,06,29,15,18,26.20
2008,06,29,15,19,26.30
2008,06,29,15,20,26.30
2008,06,29,15,21,26.30
2008,06,29,15,22,26.30
2008,06,29,15,23,26.30
2008,06,29,15,24,26.30
2008,06,29,15,25,26.20
2008,06,29,15,26,26.20
2008,06,29,15,27,26.20
2008,06,29,15,28,26.10
2008,06,29,15,29,26.00
2008,06,29,15,30,26.00
2008,06,29,15,31,26.10
2008,06,29,15,32,26.10
2008,06,29,15,33,26.20
2008,06,29,15,34,26.30
2008,06,29,15,35,26.40
2008,06,29,15,36,26.40
2008,06,29,15,37,26.40
2008,06,29,15,38,26.40
2008,06,29,15,39,26.60
2008,06,29,15,40,26.60
2008,06,29,15,41,26.60
2008,06,29,15,42,26.60
2008,06,29,15,43,26.70
2008,06,29,15,44,26.70
2008,06,29,15,45,26.80
2008,06,29,15,46,26.80
2008,06,29,15,47,26.90
2008,06,29,15,48,26.90
2008,06,29,15,49,27.10
2008,06,29,15,50,27.10
2008,06,29,15,51,27.20
2008,06,29,15,52,27.30
2008,06,29,15,53,27.30
2008,06,29,15,54,27.30
2008,06,29,15,55,27.20
2008,06,29,15,56,27.20
2008,06,29,15,57,27.10
2008,06,29,15,58,27.10
2008,06,29,15,59,27.20
2008,06,29,16,00,27.30
2008,06,29,16,01,27.40
2008,06,29,16,02,27.50
2008,06,29,16,03,27.60
2008,06,29,16,04,27.70
2008,06,29,16,05,27.80
2008,06,29,16,06,27.90
2008,06,29,16,07,28.00
2008,06,29,16,08,28.00
2008,06,29,16,09,28.00
2008,06,29,16,10,28.00
2008,06,29,16,11,28.00
2008,06,29,16,12,28.00
2008,06,29,16,13,28.00
2008,06,29,16,14,28.10
2008,06,29,16,15,28.10
2008,06,29,16,16,28.10
2008,06,29,16,17,28.20
2008,06,29,16,18,28.30
2008,06,29,16,19,28.40
2008,06,29,16,20,28.50
2008,06,29,16,21,28.60
2008,06,29,16,22,28.70
2008,06,29,16,23,28.80
2008,06,29,16,24,28.80
2008,06,29,16,25,28.90
2008,06,29,16,26,28.90
2008,06,29,16,27,28.90
2008,06,29,16,28,28.70
2008,06,29,16,29,28.70
2008,06,29,16,30,28.70
2008,06,29,16,31,28.70
2008,06,29,16,32,28.70
2008,06,29,16,33,28.80
2008,06,29,16,34,28.80
2008,06,29,16,35,28.90
2008,06,29,16,36,28.90
2008,06,29,16,37,28.90
2008,06,29,16,38,28.80
2008,06,29,16,39,28.60
2008,06,29,16,40,28.30
2008,06,29,16,41,28.10
2008,06,29,16,42,27.90
2008,06,29,16,43,27.80
2008,06,29,16,44,27.70
2008,06,29,16,45,27.70
2008,06,29,16,46,27.70
2008,06,29,16,47,27.70
2008,06,29,16,48,27.70
2008,06,29,16,49,27.80
2008,06,29,16,50,27.80
2008,06,29,16,51,27.90
2008,06,29,16,52,27.90
2008,06,29,16,53,27.90
2008,06,29,16,54,28.00
2008,06,29,16,55,28.00
2008,06,29,16,56,28.00
2008,06,29,16,57,28.10
2008,06,29,16,58,28.10
2008,06,29,16,59,28.20
2008,06,29,17,00,28.20
2008,06,29,17,01,28.30
2008,06,29,17,02,28.30
2008,06,29,17,03,28.40
2008,06,29,17,04,28.50
2008,06,29,17,05,28.60
2008,06,29,17,06,28.60
2008,06,29,17,07,28.60
2008,06,29,17,08,28.70
2008,06,29,17,09,28.80
2008,06,29,17,10,28.80
2008,06,29,17,11,28.90
2008,06,29,17,12,28.90
2008,06,29,17,13,28.90
2008,06,29,17,14,28.90
2008,06,29,17,15,28.90
2008,06,29,17,16,28.90
2008,06,29,17,17,28.90
2008,06,29,17,18,28.80
2008,06,29,17,19,28.70
2008,06,29,17,20,28.60
2008,06,29,17,21,28.60
2008,06,29,17,22,28.60
2008,06,29,17,23,28.40
2008,06,29,17,24,28.30
2008,06,29,17,25,28.30
2008,06,29,17,26,28.20
2008,06,29,17,27,28.10
2008,06,29,17,28,28.00
2008,06,29,17,29,27.90
2008,06,29,17,30,27.80
2008,06,29,17,31,27.80
2008,06,29,17,32,27.80
2008,06,29,17,33,27.70
2008,06,29,17,34,27.70
2008,06,29,17,35,27.70
2008,06,29,17,36,27.70
2008,06,29,17,37,27.70
2008,06,29,17,38,27.80
2008,06,29,17,39,27.80
2008,06,29,17,40,27.90
2008,06,29,17,41,27.90
2008,06,29,17,42,27.90
2008,06,29,17,43,28.00
2008,06,29,17,44,28.00
2008,06,29,17,45,28.10
2008,06,29,17,46,28.10
2008,06,29,17,47,28.10
2008,06,29,17,48,28.10
2008,06,29,17,49,28.10
2008,06,29,17,50,28.10
2008,06,29,17,51,28.10
2008,06,29,17,52,28.10
2008,06,29,17,53,28.10
2008,06,29,17,54,28.20
2008,06,29,17,55,28.20
2008,06,29,17,56,28.20
2008,06,29,17,57,28.20
2008,06,29,17,58,28.20
2008,06,29,17,59,28.20
2008,06,29,18,00,28.20
2008,06,29,18,01,28.30
2008,06,29,18,02,28.30
2008,06,29,18,03,28.20
2008,06,29,18,04,28.20
2008,06,29,18,05,28.20
2008,06,29,18,06,28.30
2008,06,29,18,07,28.30
2008,06,29,18,08,28.30